Wind_Speed
23 22 21 20 18 18 16 14 13 13 13 12 10 9 8 8 7 7 6 5 5 4 4 4 4 5 6 7 8 9 10 10 9 9 9 9 10 11 11 11 13 14 13 14 15 16 17 17 18 18 18 18 19 19 19 19 19 18 17 17 17 17 17 15 14 16 21 21 18 16 13 11 11 12 13 13 13 14 16 17 17 17 16 16 15
20 20 19 18 17 17 16 16 16 15 14 13 11 9 9 8 8 8 7 6 5 5 5 4 4 5 5 6 7 8 9 10 10 9 9 10 11 12 12 11 12 13 13 13 13 15 16 17 17 17 16 17 18 18 19 20 19 19 19 18 19 18 17 19 20 18 18 20 20 17 15 13 13 14 15 15 15 15 17 18 18 18 17 16 16
23 23 20 18 18 14 11 13 15 16 15 12 10 10 9 9 8 8 8 7 7 6 6 5 5 5 5 5 5 6 7 8 9 9 9 10 10 12 12 11 12 12 12 12 12 13 14 16 17 17 15 16 17 19 20 21 20 20 20 20 20 20 18 19 21 19 17 19 20 19 16 16 15 15 16 16 15 15 17 18 17 17 16 15 16
19 19 18 19 20 17 14 14 14 14 14 12 10 9 9 9 9 9 9 9 8 7 7 6 5 4 4 4 4 4 4 5 6 7 9 10 11 12 13 12 12 12 13 14 14 14 15 16 18 17 16 17 19 20 20 20 21 20 21 21 21 21 20 19 20 21 20 19 19 19 18 16 16 16 17 17 16 15 16 17 17 17 17 17 17
16 15 13 13 16 18 19 18 14 13 14 12 9 9 10 10 10 10 10 10 9 8 7 6 5 5 4 4 4 4 5 5 6 8 9 11 13 14 15 15 14 15 15 16 16 15 15 17 19 19 17 18 19 20 20 20 20 21 22 23 22 22 21 20 21 23 23 21 20 19 17 15 15 16 18 18 16 14 14 17 19 20 20 20 20
13 12 11 14 17 19 20 20 18 17 17 13 9 10 12 13 13 13 12 11 10 9 8 7 6 5 5 5 6 6 7 8 9 9 10 11 13 15 17 17 17 17 17 18 18 17 17 18 20 20 19 20 21 21 20 20 21 21 22 23 23 22 21 21 22 23 25 26 23 19 18 17 17 17 19 19 19 17 17 18 20 22 23 23 23
11 8 15 23 24 24 24 24 22 20 19 16 12 13 16 17 16 15 14 13 11 10 9 8 7 7 7 7 8 8 8 8 9 10 11 12 14 15 17 18 18 18 17 17 18 18 19 20 20 20 20 21 23 23 22 21 21 22 23 23 23 22 22 22 23 23 24 25 23 21 20 20 18 17 18 19 19 19 20 21 22 23 24 26 26
21 20 25 30 30 29 28 27 24 20 20 19 16 16 20 20 17 16 15 14 13 11 10 9 8 8 8 9 9 8 8 9 10 11 13 14 14 15 17 18 18 18 17 17 17 18 19 20 21 21 21 22 23 24 24 23 22 22 22 22 22 22 23 23 23 23 23 23 22 21 20 19 17 14 15 18 18 19 23 25 26 28 27 27 27
29 27 28 31 32 30 29 28 24 21 21 21 19 19 22 21 18 17 16 15 13 12 11 10 10 10 9 9 9 9 10 11 12 13 14 14 15 15 15 17 18 18 18 17 16 16 17 19 20 20 21 23 24 24 24 24 24 24 23 22 23 23 23 23 23 23 22 21 21 19 17 18 19 17 17 22 24 24 24 24 25 28 29 27 26
27 29 30 32 31 30 29 28 24 23 23 23 22 23 24 22 20 19 17 15 14 12 12 12 12 11 10 10 11 11 12 12 13 14 15 15 15 15 15 16 16 17 17 17 16 14 15 16 17 17 17 20 23 25 25 25 26 27 27 26 25 24 23 23 23 22 21 20 20 20 18 18 22 24 26 29 29 26 25 24 23 26 27 23 21
27 30 32 32 31 29 30 29 27 26 25 23 24 26 26 23 21 20 18 16 14 13 13 13 13 12 12 12 13 13 14 14 14 14 15 15 15 15 16 17 17 16 17 17 17 15 14 15 16 16 16 17 19 21 22 23 25 27 29 29 28 26 24 24 23 23 23 22 21 22 21 21 24 28 29 30 28 26 27 27 26 28 29 23 19
28 30 32 32 30 29 29 29 28 28 27 26 27 28 27 24 22 21 19 17 15 15 15 15 14 14 14 14 15 15 15 15 15 15 16 15 15 16 17 18 17 17 16 16 17 16 15 15 16 17 17 18 19 21 22 22 23 24 27 28 29 29 28 27 26 25 25 24 22 23 24 24 26 28 30 30 29 28 29 29 29 32 32 28 23
28 29 29 29 29 30 30 29 28 28 28 28 29 29 27 25 23 22 20 18 17 17 16 16 15 16 16 16 16 16 16 16 16 16 16 16 16 16 18 18 17 17 17 15 15 15 15 15 16 17 17 18 19 21 23 24 24 24 25 26 28 30 31 31 31 30 29 27 25 25 28 29 29 30 32 32 31 30 29 29 32 33 33 32 29
28 29 29 29 29 30 30 29 29 29 27 27 27 28 27 26 24 22 20 19 18 18 18 17 17 17 18 18 18 18 18 18 17 16 16 16 16 16 17 18 18 18 17 16 15 16 16 15 16 17 18 18 18 20 21 23 25 25 25 26 27 29 31 32 33 34 33 32 29 28 29 31 32 32 32 32 32 32 32 33 35 35 33 30 27
29 29 29 30 30 30 30 30 29 28 26 25 26 28 28 26 24 23 21 20 19 19 19 19 19 19 19 19 19 19 19 18 17 17 17 16 15 16 17 17 18 18 17 17 15 15 15 15 17 18 19 19 18 18 20 22 24 25 26 26 27 29 30 32 33 34 35 35 35 34 32 31 32 32 33 33 34 33 35 36 36 34 30 25 22
29 29 29 30 31 31 31 30 28 27 26 25 27 29 28 25 23 23 22 22 21 21 21 21 20 20 20 20 20 20 19 18 17 16 16 15 15 15 16 17 18 18 18 18 16 15 15 16 17 18 19 20 19 19 20 22 25 26 27 27 28 29 30 31 31 31 32 34 35 36 36 34 33 32 33 34 34 34 34 32 31 30 27 21 20
30 30 30 31 31 31 31 30 28 27 26 26 27 28 26 23 24 25 25 24 24 23 23 22 21 21 22 21 21 20 19 18 17 16 15 15 14 14 15 16 17 18 18 18 17 16 15 15 16 17 19 20 20 20 20 21 25 28 27 27 28 29 30 30 29 29 30 31 32 32 34 35 35 34 33 33 35 37 34 31 31 33 29 22 18
31 31 32 33 33 32 32 31 29 28 28 28 29 29 27 24 26 27 27 26 25 24 24 23 22 23 23 22 21 20 19 18 17 15 15 14 14 13 14 15 17 18 18 18 17 16 15 15 15 16 18 20 20 20 20 21 23 26 26 24 25 28 29 28 28 28 29 30 31 31 30 31 33 34 33 32 35 40 38 35 36 37 33 25 22
33 34 35 35 34 32 31 29 28 28 28 29 29 28 24 23 26 29 29 27 25 24 23 23 24 24 23 22 21 20 20 19 17 16 15 14 14 13 13 14 17 18 18 18 18 17 16 15 15 16 18 20 20 20 21 22 23 24 24 23 22 24 26 25 27 29 29 29 29 29 29 29 30 32 33 31 33 39 41 39 40 41 35 29 30
34 34 35 34 33 32 31 30 29 29 29 28 27 25 21 23 29 31 30 28 26 25 24 24 25 24 23 21 21 21 20 19 17 16 16 15 14 13 13 15 17 18 18 18 19 18 16 16 16 16 17 19 21 22 21 20 20 21 22 21 21 21 22 22 23 24 26 27 27 28 29 29 29 31 31 30 32 37 38 38 42 46 42 36 37
32 31 31 31 31 32 31 30 30 31 31 30 27 25 23 26 31 31 30 28 26 26 25 24 23 23 22 21 21 20 19 18 16 16 17 17 16 15 15 15 16 18 18 19 19 18 17 16 16 16 18 20 22 21 19 17 17 18 19 19 19 19 20 20 20 20 21 22 23 25 26 27 27 28 28 27 30 36 37 37 39 44 45 42 39
27 27 28 28 28 29 29 29 30 31 32 30 26 25 26 29 30 30 29 27 26 26 24 23 21 21 21 21 21 20 18 17 17 18 18 17 17 17 17 16 16 17 19 19 19 18 16 15 16 16 18 20 20 18 16 15 16 16 17 17 16 17 17 17 16 17 17 18 19 20 20 21 23 24 25 26 31 36 38 36 34 37 40 42 41
23 23 24 25 26 27 28 29 30 31 33 32 27 24 26 28 29 29 28 26 25 24 22 21 20 19 20 21 21 20 19 18 18 18 17 17 17 18 18 18 17 18 19 19 19 16 15 14 15 16 18 18 16 14 14 14 15 16 15 14 14 14 14 13 12 13 13 14 14 14 14 16 19 21 24 27 31 35 35 32 32 35 34 34 35
19 21 22 24 26 26 27 29 30 33 34 33 28 26 26 27 28 27 26 24 22 21 20 19 18 18 20 21 22 21 20 19 18 16 15 16 17 19 19 19 18 19 19 19 17 15 14 13 13 15 17 15 12 12 13 13 13 12 10 9 9 9 9 9 9 9 9 9 9 9 9 11 15 18 21 24 28 31 32 31 32 35 33 30 29
18 20 22 24 25 26 27 28 30 33 34 32 30 28 27 27 27 26 24 22 20 19 19 18 18 18 19 20 22 22 21 19 18 17 16 17 18 19 19 18 18 18 19 18 15 14 13 11 12 14 15 12 10 11 12 9 7 5 4 4 5 5 5 6 8 9 9 9 10 10 11 12 14 15 18 22 25 27 29 29 30 30 28 24 22
18 20 22 24 25 25 26 26 28 31 33 32 31 30 29 29 27 25 23 21 19 19 19 18 18 19 19 20 22 21 21 20 19 17 17 18 18 18 18 17 16 16 17 16 14 13 12 10 10 12 13 10 8 9 7 3 2 2 2 2 3 4 5 7 10 12 13 14 14 14 15 16 19 20 21 22 25 25 25 25 26 24 23 23 23
17 19 22 24 25 24 23 24 27 29 31 31 29 28 27 27 26 24 22 21 20 20 20 20 19 19 20 21 22 21 20 21 19 17 15 16 16 16 15 14 14 14 14 15 14 13 10 8 8 9 9 8 6 4 1 3 3 2 2 3 4 5 7 9 11 13 16 18 19 19 20 21 23 23 22 22 23 24 23 24 26 27 27 30 30
17 20 22 24 25 24 23 24 26 28 30 31 29 28 27 26 26 25 24 23 22 22 22 22 21 21 21 21 20 19 19 19 18 15 13 13 14 13 13 13 14 13 13 13 13 11 9 8 6 6 6 5 3 4 6 5 3 3 4 5 5 6 8 10 12 14 17 20 22 22 22 21 23 25 24 23 23 24 25 27 29 31 31 32 31
19 21 22 24 25 24 24 25 26 28 30 30 29 29 28 28 28 27 25 23 23 23 23 22 21 20 20 19 18 18 18 16 14 12 10 11 12 13 13 14 14 13 11 11 11 11 10 7 5 4 4 3 5 9 9 6 5 6 6 5 5 6 7 9 12 15 17 19 21 21 21 21 22 25 27 26 25 26 27 30 32 31 29 29 30
21 22 23 24 26 26 25 26 27 28 27 27 27 27 27 27 26 25 24 25 25 24 23 21 20 20 19 19 18 17 16 14 12 11 11 12 13 15 14 14 13 11 9 9 11 12 10 8 6 6 4 5 8 12 10 7 7 8 7 6 6 7 8 9 12 14 15 16 16 18 21 23 24 26 28 26 25 25 27 30 33 30 26 26 27
22 23 24 25 27 27 27 28 27 26 26 26 27 26 25 24 25 25 26 27 26 24 23 22 22 22 22 22 21 20 19 16 14 13 12 12 14 15 14 12 10 9 9 9 12 13 11 8 7 7 6 7 10 13 12 9 9 10 9 8 8 8 9 10 11 13 14 15 16 19 21 23 25 27 29 28 25 25 26 26 26 23 23 25 27
23 24 25 27 28 28 28 27 25 24 25 25 25 24 23 23 23 27 29 29 25 23 23 24 23 24 24 24 24 24 23 20 18 16 13 12 14 15 13 10 8 8 8 10 13 13 10 9 9 8 8 9 11 14 14 11 10 11 11 10 10 10 10 10 10 11 14 16 18 20 21 22 24 26 28 28 25 24 23 23 21 21 23 26 27
26 26 27 27 27 27 26 25 24 25 26 25 25 25 24 22 23 26 27 26 25 26 26 26 25 25 25 25 26 26 26 23 20 17 14 13 13 13 12 9 7 7 8 10 13 13 10 9 9 8 8 9 11 13 14 12 11 12 13 12 12 11 11 10 10 11 13 15 17 18 19 21 22 23 24 24 24 23 23 23 23 24 25 25 24
28 28 28 28 27 27 27 26 27 28 28 28 27 27 26 27 28 26 22 21 23 26 27 27 26 26 26 27 27 27 26 24 21 18 15 13 13 13 13 10 8 8 8 11 13 13 11 10 9 8 7 8 10 12 15 15 14 14 14 13 12 11 10 10 11 12 15 16 15 15 17 19 19 20 21 22 22 23 23 24 24 24 24 24 24
28 28 28 27 27 28 28 28 30 30 30 29 29 28 29 30 29 25 22 22 23 23 25 26 25 24 25 25 25 24 24 22 19 17 16 14 13 14 14 13 12 12 12 13 14 14 12 12 11 9 8 8 9 12 16 17 17 16 15 14 12 11 11 10 11 13 16 18 17 16 16 17 18 20 21 20 20 21 23 24 25 24 24 25 26
27 27 27 27 27 27 28 29 31 31 31 30 30 30 30 29 27 26 26 27 24 23 25 26 24 22 22 22 21 21 20 19 18 18 16 15 15 16 17 18 18 18 17 16 15 14 14 13 12 11 9 8 9 12 15 17 17 17 15 14 13 13 13 14 14 15 17 18 19 18 17 17 18 19 20 20 20 20 21 24 26 27 27 27 27
26 26 27 27 28 28 28 29 31 32 31 30 30 29 27 26 26 27 27 26 24 24 26 26 24 22 21 21 20 19 19 18 17 18 18 17 17 18 19 21 22 22 20 18 16 15 15 15 14 12 11 9 9 11 14 16 15 12 12 12 12 11 11 14 17 18 18 19 20 19 19 19 19 18 19 19 19 20 20 22 25 27 27 27 27
26 26 26 27 28 28 28 29 30 30 29 28 27 27 26 26 27 27 26 25 25 25 24 25 24 23 23 23 21 18 17 17 18 19 20 20 20 20 21 23 24 24 22 19 18 17 16 16 15 14 12 9 9 11 14 15 12 9 8 8 9 9 9 12 16 18 19 20 20 20 20 21 21 20 19 18 19 19 20 22 24 25 25 25 25
26 26 26 26 27 28 29 30 29 28 27 27 27 26 26 26 26 26 25 25 24 24 24 24 24 24 24 24 21 18 17 18 19 21 22 22 22 22 23 24 25 25 24 22 19 18 17 17 16 15 13 10 9 11 13 14 11 9 7 7 8 9 11 12 14 17 20 22 22 21 22 23 23 23 23 22 22 23 23 23 24 25 25 25 25
27 27 27 28 28 29 29 30 29 28 28 28 28 27 27 28 28 28 26 25 24 25 25 25 25 26 26 25 23 21 20 20 22 23 23 22 23 24 24 25 26 26 25 23 21 20 18 17 16 16 15 13 11 11 13 14 13 10 9 8 8 10 12 14 15 16 19 22 23 23 24 25 25 25 26 26 26 26 27 26 26 27 27 27 26
29 29 29 29 30 30 29 28 29 29 30 30 30 29 30 31 30 28 27 26 26 26 26 26 27 27 26 25 25 24 23 23 23 23 22 22 23 24 25 26 26 26 25 24 22 21 19 18 17 16 16 15 14 13 13 15 14 13 11 10 10 10 12 15 17 17 18 21 23 23 24 25 25 25 26 27 27 27 28 28 28 28 28 28 27
29 29 29 30 30 30 29 30 31 32 30 30 30 30 32 32 31 29 28 28 28 27 27 28 29 28 26 25 25 24 23 24 24 23 22 22 23 24 25 26 27 27 26 24 22 21 19 19 18 16 15 16 17 16 16 16 16 15 14 13 12 11 11 14 18 19 19 20 21 22 23 24 25 25 25 25 25 26 27 27 28 29 29 28 28
29 30 30 30 30 31 32 33 33 31 30 30 32 33 33 32 30 30 29 29 29 28 28 28 29 27 26 25 24 23 22 23 24 24 24 23 23 24 25 25 25 26 26 25 23 21 20 20 19 18 16 16 16 18 19 19 19 18 17 16 15 13 12 12 16 20 22 23 23 24 24 25 26 26 26 25 26 26 26 27 28 29 29 29 30
28 29 29 29 30 31 33 33 32 32 32 33 33 33 32 31 30 30 30 29 29 29 29 29 29 27 25 23 22 22 23 23 24 24 24 24 24 24 24 24 23 24 24 24 24 23 22 22 21 20 19 18 17 18 20 20 21 21 20 20 19 18 16 14 14 16 20 24 26 27 27 27 28 29 28 28 28 28 28 28 29 30 30 30 29
27 28 29 28 28 30 31 32 32 32 32 31 30 30 30 30 30 31 31 31 30 30 30 30 30 27 24 23 22 23 24 24 24 24 24 24 23 23 23 23 23 22 22 23 23 23 24 24 23 22 21 20 20 20 21 22 23 24 24 24 24 23 21 19 16 15 16 19 23 26 28 29 29 29 30 30 30 30 30 30 30 30 30 30 29
26 28 29 29 29 30 31 31 31 31 30 29 29 29 29 30 31 32 32 32 31 30 31 31 30 28 26 24 24 24 25 24 24 24 23 23 22 21 21 22 22 22 22 22 22 22 23 23 23 23 23 22 21 22 22 23 24 25 25 26 26 26 24 22 20 19 18 18 19 22 26 28 29 29 29 30 31 31 32 31 30 30 30 30 31
26 27 29 30 30 30 30 30 30 29 29 29 29 29 30 31 32 32 33 33 32 31 31 31 30 29 28 26 26 26 25 25 25 24 24 23 21 20 20 21 21 22 21 21 22 22 22 22 23 23 23 22 22 23 24 25 25 26 26 26 27 27 26 25 23 23 22 21 20 21 23 26 28 28 28 28 29 31 31 31 31 30 30 30 30
26 27 29 29 29 29 29 28 28 28 29 29 30 30 31 31 31 32 32 33 32 32 32 31 31 31 29 28 28 28 27 26 26 25 25 24 23 22 21 21 21 21 21 21 21 21 21 21 22 22 22 22 23 23 24 25 26 26 27 27 27 27 27 26 26 25 25 23 22 21 22 24 26 27 27 27 28 29 30 30 30 30 30 29 29
26 27 28 29 29 29 29 29 29 29 30 30 30 30 30 30 30 31 32 32 33 33 33 32 32 32 32 31 30 30 29 28 28 27 26 26 24 23 23 22 22 22 22 22 21 21 20 20 21 21 22 22 23 24 25 25 26 26 26 26 26 27 27 27 27 26 25 25 23 22 21 23 25 26 26 26 27 28 29 29 30 30 30 30 30
26 27 28 29 29 30 30 29 29 29 30 29 28 29 29 29 30 31 31 31 32 33 33 33 33 33 33 33 32 32 31 30 30 29 28 27 26 25 24 23 23 23 23 23 22 22 21 21 21 21 21 22 23 24 25 25 26 26 26 25 25 25 26 26 26 26 25 25 24 22 22 23 24 25 25 25 27 29 31 31 31 31 31 31 32
24 26 28 29 29 29 28 28 28 28 28 28 28 29 29 29 30 31 31 32 32 33 34 35 35 34 34 35 35 34 33 32 31 30 29 29 28 27 25 25 24 24 24 24 24 23 23 22 22 21 21 22 22 23 24 25 25 25 26 25 25 25 25 26 26 26 25 25 24 23 23 23 24 26 26 27 28 31 33 33 33 33 33 33 33
Wind_Direction
233 235 234 232 230 230 233 231 225 221 217 217 222 226 228 232 237 240 237 234 236 244 257 267 278 285 286 286 285 283 280 279 279 281 287 293 295 296 294 287 276 268 264 265 268 269 269 268 268 268 269 270 270 271 271 272 274 275 270 261 251 240 226 219 228 253 267 269 271 270 265 263 254 241 233 229 228 222 213 211 208 200 190 175 165
229 231 230 228 228 230 233 230 224 222 220 220 220 220 224 227 231 233 230 231 236 243 253 262 274 282 286 291 292 291 288 283 284 288 291 291 290 293 297 296 290 278 265 261 263 266 268 268 267 269 271 270 269 269 269 269 271 270 269 266 260 250 236 222 220 231 251 261 263 263 259 255 251 245 238 231 231 229 217 206 197 188 181 172 161
227 225 218 212 212 219 236 241 233 226 222 222 222 224 229 228 229 232 231 234 240 249 260 268 273 275 277 282 285 289 290 288 295 306 314 314 310 308 307 305 301 293 282 275 270 269 271 272 271 270 269 268 266 266 267 268 267 266 266 266 264 260 251 237 229 231 242 253 256 256 256 254 249 244 240 234 231 228 215 197 184 179 175 170 163
222 214 206 204 206 208 223 242 246 238 228 226 231 235 238 235 234 235 236 240 245 253 263 269 276 278 272 271 274 278 284 292 305 314 319 321 318 317 315 309 299 291 287 287 283 278 276 276 277 277 273 269 267 267 268 268 266 264 264 264 264 263 260 252 246 243 244 248 251 253 255 253 247 239 236 233 227 220 209 193 186 185 177 170 167
207 195 195 213 219 215 217 220 228 237 234 230 237 249 251 247 244 242 242 246 250 254 261 265 270 272 268 268 267 272 284 293 302 307 310 313 315 315 313 309 300 290 285 285 285 284 282 278 278 279 277 272 270 270 268 267 267 267 266 265 264 264 261 256 253 250 246 244 245 248 247 244 238 233 231 229 218 201 194 192 191 185 174 170 169
193 185 205 231 225 218 220 218 215 220 222 224 248 270 261 250 246 245 245 247 250 252 254 256 259 261 262 266 269 277 287 294 300 305 308 311 314 315 315 312 306 298 289 283 280 277 275 274 276 279 277 273 271 271 270 267 265 264 265 265 264 264 262 257 254 250 245 244 244 240 239 237 233 227 226 225 215 193 176 177 183 180 174 170 168
185 216 243 240 227 219 223 223 216 211 213 226 253 261 248 242 242 243 243 244 248 250 251 252 255 260 266 271 275 279 283 289 297 304 310 314 316 316 315 314 310 305 298 290 283 277 270 266 269 274 276 276 274 273 272 268 265 264 263 264 264 263 259 255 253 247 242 243 242 238 238 238 231 223 219 216 212 200 183 172 171 176 178 175 170
219 236 236 230 228 228 225 222 217 212 216 231 244 239 231 234 238 239 240 242 246 250 253 254 256 261 268 273 275 277 284 294 303 309 315 319 320 319 317 313 310 306 302 296 291 286 279 271 267 266 268 271 274 275 275 272 269 267 264 263 263 261 257 252 248 243 238 237 236 235 235 230 224 220 212 200 196 199 195 183 177 179 182 180 176
229 231 223 221 227 229 222 217 218 218 220 228 234 230 226 229 233 236 238 241 246 250 251 253 258 262 265 267 269 276 287 297 305 310 314 317 318 318 315 312 310 308 305 302 298 293 289 284 278 272 267 264 264 266 269 271 271 270 267 265 262 258 254 249 244 239 234 231 231 228 220 218 216 208 202 203 205 205 198 188 182 183 182 180 179
219 217 215 219 223 222 218 216 219 221 222 227 232 229 226 226 230 233 237 240 244 246 247 252 257 258 258 261 267 276 285 291 297 301 306 310 312 313 312 309 310 310 309 307 304 300 295 292 290 287 281 275 269 265 263 264 264 264 264 264 264 259 252 246 242 238 233 229 227 220 211 212 213 208 209 215 216 208 195 186 180 178 176 175 178
210 210 213 218 220 218 217 218 219 222 225 231 233 229 225 226 228 231 234 237 238 239 243 249 253 254 255 260 267 275 281 286 289 292 296 300 303 307 309 307 307 307 308 309 309 308 304 299 297 296 294 292 289 285 279 271 266 264 262 260 258 257 254 247 240 236 234 232 229 222 215 215 217 216 216 217 215 206 198 191 181 175 175 176 179
212 213 217 221 222 221 222 221 222 225 227 230 231 228 224 224 225 229 232 232 232 235 240 246 251 252 255 261 267 274 281 284 285 286 290 294 299 304 307 306 304 303 302 306 310 313 311 306 304 303 299 297 297 297 295 289 281 275 271 266 260 255 254 251 245 239 235 233 230 224 220 221 222 219 216 217 217 211 202 195 186 183 185 185 186
218 220 223 224 225 226 227 226 227 228 227 227 227 224 221 221 223 227 229 228 229 233 239 246 251 253 255 260 266 272 279 281 281 283 287 292 299 305 306 304 302 299 298 300 305 312 314 310 306 304 303 301 298 294 293 293 289 283 278 274 267 259 254 251 249 245 240 236 233 229 227 226 226 225 224 224 219 209 199 196 194 193 192 192 194
222 225 226 226 227 228 229 230 230 230 228 226 223 220 218 219 223 226 227 226 228 233 240 246 250 253 257 261 265 272 278 279 279 282 286 291 299 305 306 302 298 296 295 296 301 309 314 315 311 308 307 306 303 297 292 291 291 288 283 277 272 265 258 252 250 248 245 240 236 235 235 234 233 235 236 232 222 210 203 201 200 198 196 196 198
223 226 227 229 229 229 231 231 230 230 230 226 221 217 216 218 223 227 227 227 232 237 243 248 251 254 256 259 263 270 277 279 280 281 284 290 298 303 304 301 298 295 292 293 298 305 310 315 314 311 310 310 307 302 297 293 290 287 284 280 276 270 264 257 251 249 249 246 242 240 241 240 240 242 241 237 231 222 214 210 205 199 193 189 185
222 225 227 229 229 228 228 227 226 228 228 224 218 214 213 216 224 228 228 230 235 240 244 248 252 255 256 257 260 267 275 279 277 278 281 285 292 300 303 301 299 296 294 293 296 300 307 314 315 312 311 310 308 305 303 298 292 286 283 280 276 270 267 263 259 255 254 253 251 248 247 246 245 245 243 241 236 224 212 207 202 192 182 168 161
220 224 225 227 227 226 224 223 223 224 222 217 213 210 208 216 228 231 229 230 234 238 243 248 252 256 258 259 261 267 275 279 277 275 276 279 286 297 302 303 301 299 296 296 295 298 305 313 316 315 312 310 309 307 305 300 294 290 286 282 275 267 264 265 265 263 259 257 258 257 255 253 249 247 249 247 237 220 204 195 191 185 174 160 155
217 221 224 227 227 224 223 222 221 220 218 215 213 208 204 215 229 232 230 232 236 239 243 248 252 255 258 262 266 271 278 280 277 274 272 274 281 294 302 304 304 302 299 297 295 296 303 312 317 316 313 312 311 309 307 302 295 291 289 285 277 268 262 261 262 262 261 260 262 261 259 258 255 252 252 249 235 219 208 200 193 185 177 170 162
215 218 221 224 224 222 222 221 219 219 217 214 211 206 203 220 235 234 231 233 238 243 246 248 252 254 257 264 271 276 280 281 278 273 270 270 275 288 300 304 305 305 302 298 296 298 304 313 318 318 315 313 311 308 306 300 293 289 287 283 277 270 266 262 258 258 260 261 262 263 260 260 260 255 252 249 236 222 214 209 201 189 182 175 162
218 219 219 219 219 219 220 219 218 219 216 212 207 200 207 236 243 234 230 234 238 244 247 248 250 253 258 266 273 277 280 281 280 275 270 268 271 282 292 299 305 308 304 298 297 302 308 315 320 320 318 315 311 309 308 302 294 290 286 280 274 271 271 267 261 259 260 259 260 261 259 258 258 255 251 245 233 219 211 210 206 196 187 176 165
219 217 216 215 214 216 218 218 219 220 216 209 202 198 215 243 246 235 232 236 237 241 245 245 248 254 260 268 275 279 282 283 282 277 270 265 268 276 284 294 304 307 304 298 296 301 310 319 324 322 319 317 315 312 308 303 299 296 292 285 281 278 276 274 270 266 265 263 261 259 256 253 251 249 246 238 225 214 209 209 206 197 189 181 172
218 214 212 211 210 212 215 217 218 216 211 204 201 208 226 243 244 235 233 236 236 239 243 244 248 255 262 271 277 283 288 289 285 281 273 265 266 272 281 291 301 304 303 299 295 298 309 321 326 324 320 319 319 316 311 309 307 303 298 295 293 289 284 279 276 271 267 264 259 252 247 243 238 235 231 222 211 206 206 205 198 191 191 190 182
218 213 208 206 208 210 212 214 214 211 206 204 211 226 236 239 236 232 231 233 235 239 241 243 249 259 268 276 282 287 292 291 289 285 276 266 266 273 280 287 296 302 302 296 292 295 305 317 325 324 322 322 322 322 321 315 307 302 299 297 294 289 284 278 271 263 255 247 240 232 224 221 217 211 207 203 199 199 200 196 189 186 188 189 186
214 208 206 206 208 209 210 211 211 208 206 208 220 233 236 233 230 228 229 232 234 237 240 244 253 265 273 280 287 292 293 292 290 285 275 270 271 275 279 284 292 299 299 292 289 290 298 311 323 324 321 323 327 331 328 316 304 300 299 295 288 281 273 261 244 229 217 205 195 185 180 185 189 189 187 183 181 183 182 178 176 177 177 179 182
209 206 206 206 207 208 210 211 211 209 208 214 225 232 230 227 224 225 228 230 231 234 239 247 257 266 273 280 287 292 294 293 290 283 275 274 276 276 278 283 290 296 295 289 283 282 287 301 318 323 322 323 331 334 327 313 299 294 286 275 268 256 238 217 193 172 154 144 142 141 144 154 159 161 163 164 161 159 159 158 160 164 167 170 174
211 210 208 207 206 208 211 213 212 211 212 219 228 230 228 224 222 223 226 227 228 232 239 247 256 263 269 275 282 288 292 293 291 285 276 274 277 278 278 281 287 293 292 284 274 270 275 290 310 321 323 323 326 328 322 294 232 237 236 217 211 201 186 174 163 149 135 127 125 127 132 141 145 142 143 148 149 148 148 148 146 149 156 156 147
215 214 212 210 208 210 214 216 215 215 217 222 227 227 226 224 222 222 223 223 224 230 238 246 252 258 265 271 277 282 288 291 292 288 280 276 280 282 278 278 282 285 285 279 270 263 266 280 300 315 322 323 319 310 213 165 178 209 188 162 159 162 159 158 154 144 137 133 129 125 126 133 138 138 137 138 138 141 147 146 138 138 144 143 134
221 220 217 213 212 214 218 220 219 219 221 224 224 223 223 223 223 224 227 227 227 230 236 242 249 255 261 267 273 277 281 288 296 297 290 285 288 288 281 279 280 277 276 275 267 256 255 267 283 301 315 318 289 182 158 154 177 188 165 150 144 143 148 151 145 137 134 133 129 125 125 127 129 131 134 135 134 136 143 144 140 139 141 138 132
222 222 219 215 216 218 219 220 222 222 222 222 222 223 226 227 227 229 232 235 237 238 240 244 251 257 261 265 270 271 275 286 302 311 305 293 291 291 287 285 283 280 278 272 258 246 245 250 255 261 278 271 201 176 163 161 180 177 163 155 147 140 147 151 144 139 137 134 131 130 132 130 129 129 131 132 135 140 146 146 143 144 146 141 137
217 218 218 218 220 222 222 222 224 223 221 220 221 224 228 230 232 234 237 239 239 240 243 249 255 259 262 266 269 270 274 283 296 307 305 295 289 287 287 287 285 281 274 258 242 238 239 240 241 237 233 226 203 185 171 168 181 179 170 163 153 142 146 153 151 148 148 147 143 141 140 137 135 134 134 135 139 145 149 149 148 150 150 143 139
214 215 217 220 223 225 225 224 223 220 219 220 222 222 223 226 230 232 235 236 236 238 243 250 255 258 261 266 270 271 273 274 278 289 299 298 290 284 281 281 279 273 261 244 235 235 235 234 237 232 222 222 212 193 180 179 185 183 178 176 172 161 158 163 162 159 160 159 155 152 149 144 141 140 140 143 149 152 153 152 151 154 155 150 148
218 217 219 223 225 224 223 222 218 215 215 218 220 220 219 220 224 228 230 232 236 241 246 250 254 257 260 265 268 271 272 271 271 276 287 293 287 280 274 272 268 260 247 234 231 235 235 233 235 230 221 223 215 199 190 189 188 184 182 180 178 174 170 173 176 172 169 165 160 158 155 151 148 148 148 151 156 160 159 158 159 160 159 155 155
224 223 224 223 221 220 220 217 214 214 215 215 216 217 215 215 222 228 230 232 238 244 248 251 255 258 261 264 266 269 272 272 268 266 271 278 279 272 266 262 256 247 238 230 231 237 239 235 234 231 228 231 221 205 198 197 194 193 191 185 182 181 175 175 182 185 181 175 170 167 164 159 157 158 159 162 167 170 167 163 164 164 160 157 157
230 229 228 224 221 219 216 213 213 216 216 216 216 215 215 218 223 225 226 230 237 244 248 252 256 259 262 265 267 269 271 270 263 256 259 266 268 263 257 251 245 242 240 235 237 243 246 243 241 237 234 238 231 213 204 201 200 201 200 194 190 190 185 180 182 187 188 185 182 179 176 172 170 170 169 169 173 176 174 170 169 168 163 161 162
233 232 230 227 224 220 217 215 216 216 215 215 215 216 218 221 222 221 224 230 236 242 248 252 256 259 262 266 268 270 270 265 254 246 249 256 258 252 244 239 237 238 237 236 239 244 248 251 252 248 243 243 240 226 214 206 203 206 210 212 212 215 217 210 199 193 193 192 192 192 190 185 183 181 178 175 174 176 177 177 178 178 174 170 169
232 231 229 227 225 223 221 220 218 217 217 217 217 218 221 221 219 219 225 232 236 240 247 253 257 261 264 265 267 269 268 260 248 241 241 247 250 244 235 232 235 237 236 237 240 243 247 251 254 255 254 249 243 235 223 212 208 212 222 233 239 239 235 226 213 202 199 199 199 199 196 191 187 184 183 183 183 183 183 181 181 182 181 179 177
230 229 228 227 226 225 224 223 222 221 221 220 219 220 220 220 220 221 226 231 235 239 245 252 257 261 263 264 264 265 264 257 246 239 238 242 244 241 236 236 239 240 239 240 243 245 248 250 251 252 254 248 238 232 224 216 215 224 236 246 255 256 244 229 218 211 207 206 205 204 201 198 196 193 191 190 190 190 188 185 184 183 184 185 183
229 229 229 229 227 223 223 224 223 223 222 221 221 220 219 219 221 223 226 231 235 238 243 249 254 257 259 262 262 261 257 252 243 237 237 238 239 239 239 239 241 243 245 248 250 251 252 253 251 248 248 243 231 224 218 215 218 230 237 240 250 258 248 231 223 220 216 212 210 209 206 202 200 200 199 198 199 198 195 191 188 187 187 188 189
227 229 230 229 226 223 223 223 223 222 221 221 221 220 219 220 221 222 226 231 234 238 243 247 250 254 257 259 258 253 246 242 240 239 238 238 239 240 241 240 240 242 246 249 251 253 255 256 252 246 242 236 225 217 213 211 217 230 235 234 239 241 235 227 223 222 219 215 214 214 211 205 201 202 204 204 205 206 204 201 198 196 195 196 198
226 227 227 226 225 224 224 222 221 221 220 221 221 219 218 220 221 222 224 229 233 236 240 242 246 253 256 255 253 247 240 238 241 242 241 241 241 242 242 241 241 241 243 246 248 250 254 257 253 245 237 230 222 216 212 212 221 237 251 256 253 242 232 227 227 225 221 218 219 220 218 213 208 207 210 211 212 212 211 208 207 205 205 206 207
227 226 225 224 223 223 221 219 220 223 223 223 221 219 218 221 222 222 224 228 232 236 238 240 245 251 254 252 251 248 244 243 245 245 244 245 247 246 244 243 243 242 243 245 247 249 251 253 252 246 238 229 223 218 216 218 226 240 253 264 272 266 244 229 226 227 227 224 224 225 225 220 216 216 218 219 220 220 218 215 213 213 214 215 216
227 225 224 223 221 218 217 219 222 224 223 222 221 221 222 222 221 221 224 229 232 234 235 239 244 249 251 251 251 249 246 246 247 247 247 248 249 249 248 246 245 245 245 246 248 250 251 252 251 248 243 234 226 221 219 220 225 236 247 258 270 276 263 239 227 226 229 231 232 232 231 229 227 227 228 226 225 223 222 221 220 219 219 220 221
229 226 225 223 220 217 218 222 223 221 220 221 223 224 224 222 221 222 225 228 231 232 233 238 243 247 249 250 249 247 245 245 244 245 247 249 249 250 250 249 248 248 249 249 250 252 253 253 252 251 249 244 234 227 225 225 226 231 241 251 261 270 271 256 238 229 228 231 235 236 235 233 232 232 231 229 227 226 225 224 223 222 223 224 224
230 228 225 224 222 220 221 222 221 221 222 224 225 225 222 220 220 222 225 227 229 230 233 238 242 245 246 246 245 243 243 244 242 242 245 248 249 251 253 253 252 252 251 250 250 252 253 253 254 253 252 249 243 235 232 231 232 234 239 249 258 264 266 264 256 244 236 234 234 235 236 235 233 232 231 230 229 227 226 225 224 224 224 224 223
231 228 225 223 222 222 222 222 222 223 224 223 222 222 221 219 219 221 223 226 228 230 233 238 241 241 241 242 242 242 242 243 242 242 244 248 251 254 257 257 256 255 254 252 251 251 252 253 254 254 252 250 246 241 237 235 235 238 242 249 256 261 263 266 270 269 260 250 244 241 239 237 236 235 234 233 232 230 229 229 228 226 225 224 225
232 228 225 224 222 222 223 223 222 222 222 220 220 220 219 219 219 221 223 226 227 229 233 237 238 237 237 239 241 242 242 242 242 243 245 248 253 257 261 262 260 258 257 256 254 252 252 252 253 254 253 250 247 244 242 240 239 241 244 248 254 258 261 264 269 273 274 272 264 255 248 243 241 241 238 236 235 233 232 232 231 230 229 230 231
233 229 226 225 224 224 225 224 222 220 220 220 220 219 219 220 221 221 223 226 228 230 233 236 236 236 236 237 240 242 242 242 244 246 248 250 253 257 261 264 264 263 261 259 256 254 253 252 251 251 251 250 248 246 244 243 243 244 245 248 251 254 256 259 263 266 270 274 275 270 260 251 247 245 242 238 236 235 233 233 234 234 235 236 236
233 230 228 226 224 224 224 223 220 220 220 220 221 221 221 221 221 222 223 225 227 229 231 234 235 235 236 237 240 242 243 244 246 248 250 252 254 256 258 261 265 267 265 262 259 256 254 253 252 250 249 248 247 245 244 244 245 246 247 247 247 248 250 253 257 260 264 269 273 273 267 258 251 248 245 242 240 238 236 235 236 237 238 239 239
234 231 228 226 224 223 223 222 220 220 221 221 221 222 222 222 222 223 224 225 226 228 231 233 234 235 236 237 240 242 243 244 246 249 252 254 255 256 257 258 261 264 266 266 265 261 257 254 252 250 249 247 245 244 244 244 244 245 246 245 244 244 245 248 252 255 260 266 269 271 268 261 254 250 248 247 246 243 239 237 238 238 238 238 238
237 232 229 226 226 225 225 224 222 222 222 221 221 222 222 222 223 224 225 225 226 228 231 233 234 235 236 237 239 241 242 244 247 250 253 255 257 257 256 256 257 259 261 263 265 265 263 259 255 251 249 248 246 244 244 243 243 244 244 243 242 241 242 244 247 250 255 261 265 268 269 264 256 251 249 248 247 244 240 238 238 238 237 237 237
241 235 231 228 228 227 225 223 222 223 223 222 221 222 223 223 224 225 226 226 227 229 231 233 235 236 237 238 240 241 242 244 248 250 253 255 257 257 257 256 256 257 257 258 261 263 265 265 262 259 255 251 248 247 246 244 243 243 243 242 242 240 239 240 243 245 249 254 259 263 266 264 258 253 249 247 244 242 241 240 240 239 239 239 239
Height
793 795 797 799 801 803 805 806 807 808 809 809 810 811 812 813 814 814 815 815 816 816 817 817 818 818 819 819 820 821 821 821 821 821 821 821 822 822 822 823 823 823 823 823 823 824 824 824 824 824 825 825 825 825 826 827 828 829 830 831 831 833 834 836 837 835 832 833 833 833 833 833 833 833 832 832 833 833 834 834 834 834 835 836 838
792 793 796 798 800 803 805 806 806 807 808 808 809 810 811 812 812 813 814 814 815 815 815 816 816 817 817 818 819 819 820 820 820 820 820 820 820 821 821 821 822 822 821 821 821 821 822 823 822 822 823 822 822 823 824 825 826 826 826 827 828 829 831 832 833 832 830 829 830 831 831 832 831 831 831 831 831 832 833 833 833 834 835 836 838
788 789 791 794 796 800 804 807 808 808 808 809 809 810 810 811 812 813 813 814 814 814 815 815 815 815 816 816 817 818 819 819 819 819 819 819 819 819 820 820 821 821 821 820 819 819 820 821 821 821 821 821 820 820 821 822 823 823 823 824 825 825 827 828 828 828 827 826 827 828 829 829 830 830 830 830 830 831 832 833 834 836 837 838 839
786 788 790 791 792 795 800 806 809 810 809 809 809 810 810 810 811 812 812 813 813 813 813 814 814 814 814 815 816 817 818 818 818 818 818 818 818 818 818 818 819 819 819 818 818 818 818 819 820 819 819 819 818 818 819 819 820 820 820 821 821 822 823 824 824 824 824 823 824 825 826 827 827 828 829 829 829 830 831 832 834 836 836 837 838
786 787 789 792 794 795 796 800 805 809 810 809 808 809 809 810 810 810 811 811 812 812 812 812 813 813 813 814 815 816 817 817 817 817 817 817 816 816 816 816 817 817 817 816 816 816 817 817 817 818 818 817 816 816 817 817 817 817 817 817 818 818 819 820 820 821 821 821 821 822 823 825 825 825 826 827 828 829 830 832 833 834 834 835 837
785 787 789 792 794 795 796 796 798 801 805 806 806 806 807 809 810 809 810 810 810 810 811 811 811 812 812 813 813 814 815 816 816 816 816 815 815 814 814 814 814 813 813 813 813 814 815 815 815 815 815 815 815 814 815 815 815 815 814 814 815 815 816 816 817 818 818 818 819 819 821 822 822 822 824 825 826 827 829 831 833 833 834 834 836
782 787 791 791 790 789 791 793 794 795 800 803 803 803 805 807 808 808 808 808 809 809 809 810 810 810 811 811 812 812 813 814 814 814 814 814 813 813 812 811 811 811 810 810 810 811 812 812 812 812 813 813 812 812 812 812 812 811 811 811 812 813 813 813 813 814 814 815 816 817 817 819 820 821 821 822 824 825 826 828 831 833 833 834 834
776 780 785 787 785 784 786 789 791 793 795 798 798 799 802 804 805 806 806 806 807 807 808 808 809 809 809 810 810 811 811 812 812 812 812 812 811 811 810 810 809 808 808 808 808 808 808 808 808 809 810 810 810 810 810 809 809 808 808 808 809 810 810 810 810 810 811 812 813 813 814 815 817 820 821 821 823 823 823 824 826 828 830 832 832
772 775 778 781 781 782 784 786 789 790 792 793 795 796 799 801 803 804 804 804 805 806 806 807 807 807 808 808 809 809 809 810 810 810 810 810 810 809 809 808 807 807 806 805 805 805 804 804 804 804 805 806 806 806 806 807 807 806 805 806 806 806 806 806 807 807 808 809 809 810 811 812 814 816 818 818 818 819 820 821 823 824 827 830 831
770 772 774 776 777 779 781 784 786 788 789 791 792 794 796 799 800 801 802 803 803 804 805 805 805 806 806 806 807 807 808 808 808 808 808 808 808 808 807 807 806 805 804 803 803 802 802 801 801 801 801 802 802 802 802 803 803 803 803 803 803 803 803 803 804 804 805 805 806 806 807 808 809 811 812 812 813 815 817 819 820 822 825 828 830
768 769 771 772 774 776 779 781 783 785 787 789 791 793 795 796 798 799 800 801 802 802 803 803 803 804 804 805 805 805 806 806 806 806 806 806 806 806 806 805 805 804 803 802 800 800 800 799 799 798 799 798 798 798 798 798 798 798 798 799 799 800 800 800 800 801 802 802 802 802 803 803 804 806 807 808 810 812 814 815 816 819 821 823 825
766 767 768 770 772 774 775 778 780 782 784 787 789 791 793 794 796 797 798 799 800 801 801 801 802 802 803 803 803 804 804 804 804 804 804 804 804 804 804 803 802 802 801 800 799 798 797 797 796 796 796 796 796 796 795 795 795 794 794 794 795 795 796 797 797 797 797 798 798 798 798 799 800 801 803 804 806 808 810 811 812 813 814 816 817
763 764 766 768 769 770 773 775 777 778 781 784 786 789 791 792 793 795 796 797 798 798 799 799 800 800 801 801 802 802 802 802 802 802 802 802 802 802 802 801 800 800 799 798 797 796 795 795 794 794 793 794 794 793 793 792 791 791 791 790 790 790 791 792 792 793 793 794 794 794 794 795 795 796 797 800 802 804 806 808 809 809 810 810 811
760 761 763 765 766 768 770 771 773 775 777 780 783 786 787 789 791 792 793 795 795 796 797 797 798 798 799 799 800 800 800 800 800 800 800 800 800 800 799 799 798 797 797 796 795 794 793 793 792 791 791 791 791 791 790 789 789 788 787 786 786 786 786 786 787 788 789 790 790 790 790 790 790 792 794 795 797 798 800 802 804 805 806 808 809
758 759 760 762 764 765 767 768 770 772 775 778 780 782 784 786 788 790 791 792 792 793 794 795 795 796 796 797 797 798 798 798 798 798 798 798 798 797 797 796 796 795 794 794 793 792 791 791 790 789 788 788 788 788 788 787 786 785 784 783 782 781 781 781 782 782 783 785 785 786 786 787 788 789 790 791 792 793 795 797 800 802 804 806 809
755 757 758 759 761 762 764 766 768 770 772 775 777 779 781 783 785 787 788 789 790 791 792 792 793 793 794 794 795 795 795 796 796 796 796 796 796 795 795 794 793 792 792 791 791 789 789 788 787 787 786 785 786 786 786 785 784 783 781 780 779 778 776 776 777 778 779 780 781 782 783 784 785 785 786 786 787 789 792 795 798 801 804 807 809
753 754 755 756 757 759 761 763 765 768 770 772 774 776 779 782 783 785 786 787 787 788 789 789 790 790 791 792 792 793 793 793 793 793 794 794 793 793 793 792 791 790 789 789 788 787 786 786 785 784 783 783 783 783 783 783 781 780 778 776 775 774 772 772 774 775 776 777 777 778 779 779 781 781 781 782 784 785 787 790 793 796 800 803 807
750 751 751 752 754 756 758 761 763 765 767 768 770 772 775 778 781 782 783 784 785 785 786 787 788 788 789 789 790 790 790 790 791 791 791 791 791 791 791 790 789 788 787 786 786 785 784 783 783 782 781 780 780 780 780 780 778 776 775 773 771 769 769 770 771 771 772 773 773 774 774 775 776 777 778 779 780 780 780 783 787 791 794 797 800
746 747 748 749 752 754 757 759 761 763 764 766 768 770 774 777 779 780 781 781 782 783 784 784 785 785 786 787 787 787 787 787 788 788 789 789 789 789 789 788 787 786 785 784 783 782 781 780 780 780 778 778 777 777 777 776 775 773 772 771 769 767 766 767 767 767 768 769 769 770 770 771 772 773 774 775 776 775 775 778 782 786 790 793 795
741 743 745 747 750 752 754 757 759 760 762 765 767 770 774 777 777 777 778 778 779 780 781 781 782 782 783 784 784 784 785 785 786 786 786 787 787 787 787 786 785 784 783 781 780 779 778 778 777 777 776 775 775 774 773 773 771 770 769 768 766 764 764 764 764 764 764 765 765 766 767 767 768 769 770 771 773 774 775 776 777 779 783 786 789
739 741 744 745 748 750 752 754 756 757 759 762 765 768 772 773 773 774 775 776 777 777 778 778 779 780 781 782 782 782 782 782 783 784 784 784 784 784 784 784 783 781 780 779 778 776 776 775 775 775 774 773 772 771 770 770 769 767 766 765 763 762 762 761 761 761 761 762 762 763 763 764 764 765 765 767 769 771 773 774 774 776 778 780 784
738 740 742 743 745 747 749 752 754 756 758 760 763 766 768 769 769 771 772 773 774 775 775 776 778 778 779 780 779 779 780 780 780 781 781 781 782 782 782 781 781 779 778 777 776 775 774 774 773 773 772 771 770 769 768 767 766 765 763 762 761 760 759 759 759 759 759 759 760 760 760 761 761 761 762 764 765 767 769 770 772 777 780 780 781
737 739 741 742 744 745 747 749 751 754 756 758 760 762 764 765 766 768 769 771 771 772 773 775 775 776 777 777 777 777 777 777 777 778 778 779 779 779 779 779 778 778 776 775 774 774 773 773 772 771 770 770 769 768 766 766 765 763 762 760 759 758 758 757 757 757 757 757 758 758 758 759 760 760 761 762 763 764 766 768 771 776 781 784 785
736 737 739 740 741 743 745 747 749 751 754 756 758 759 760 762 763 765 767 768 769 770 772 773 773 774 774 774 774 774 774 775 775 776 776 777 777 777 777 777 776 776 774 773 773 772 772 771 770 769 769 768 768 767 766 765 764 762 761 759 758 758 757 757 756 756 756 757 757 758 758 759 759 760 761 761 762 763 765 768 771 774 779 784 787
734 735 737 738 739 741 742 744 746 748 751 753 755 756 757 759 761 763 764 766 767 768 769 770 771 772 772 772 772 772 772 772 773 774 774 775 775 775 775 775 774 774 773 772 771 771 770 770 769 768 768 767 767 766 765 764 763 762 761 759 759 758 758 757 757 757 757 758 758 759 759 759 760 761 762 763 765 765 766 768 771 774 779 784 787
732 734 735 736 738 739 740 742 744 747 749 750 752 753 754 756 758 760 762 763 765 766 767 768 769 770 770 770 770 770 770 771 771 772 772 772 772 773 773 772 772 771 770 770 769 769 769 769 768 767 767 766 766 765 765 764 764 763 761 760 760 759 758 758 758 758 758 759 760 760 760 760 761 762 764 766 767 768 770 772 773 776 780 784 788
731 732 733 735 736 738 739 740 742 745 746 748 750 751 753 754 756 758 759 761 762 764 765 766 767 767 767 767 768 768 769 769 769 770 770 770 770 771 771 770 769 768 768 768 768 768 768 768 767 766 766 766 766 765 765 765 765 764 762 761 761 760 760 760 760 759 759 759 760 761 762 762 762 763 766 768 770 771 772 774 776 780 783 785 788
730 731 732 733 735 736 737 739 740 742 744 745 747 749 751 752 754 755 756 758 760 761 762 763 764 765 765 765 766 766 767 767 768 768 768 769 769 769 769 768 767 766 766 766 766 767 767 766 766 765 765 765 766 765 765 765 765 765 763 762 761 762 761 761 761 761 761 761 762 762 763 765 765 764 766 770 773 775 776 777 780 784 787 788 789
728 730 731 732 733 735 736 737 739 740 741 743 745 746 748 750 751 752 754 756 757 759 760 761 762 762 763 763 764 764 765 766 766 766 767 767 767 767 767 766 766 765 765 765 765 766 766 765 765 765 765 765 766 765 765 766 766 765 764 763 762 763 763 763 763 763 764 764 764 765 765 767 767 767 768 772 776 779 780 780 782 787 791 791 791
727 728 730 731 732 733 734 735 737 738 739 741 743 745 746 748 749 751 753 754 755 756 758 759 760 760 761 761 762 763 763 764 765 765 765 765 765 765 765 765 764 764 764 764 765 765 765 764 764 764 764 765 765 765 765 766 766 766 765 765 764 764 764 764 765 765 765 766 767 767 767 768 769 769 770 775 779 782 784 784 784 787 791 792 792
726 726 727 728 729 730 732 733 734 736 737 739 741 742 744 746 748 750 751 752 752 754 756 757 757 758 759 759 760 760 761 762 762 763 763 763 763 763 763 763 763 763 763 764 764 764 764 763 763 763 764 764 765 765 765 766 766 766 766 766 765 765 765 765 766 766 767 767 768 769 769 769 770 770 771 775 781 784 786 786 786 788 790 791 794
723 724 725 725 726 727 729 730 732 734 736 737 739 740 742 744 746 747 748 749 750 752 753 754 755 755 756 757 757 757 758 759 760 761 761 761 761 761 761 761 761 762 762 763 763 763 762 762 762 762 763 763 764 764 765 766 766 766 766 766 766 766 766 766 767 768 768 768 769 769 770 770 771 771 772 775 780 784 785 786 787 789 790 792 794
720 721 722 722 724 725 727 728 730 732 733 735 736 738 740 742 743 744 745 747 749 750 750 751 752 753 754 754 754 755 755 756 757 758 759 759 759 759 759 759 760 760 761 761 761 761 761 761 761 761 761 762 762 763 765 765 766 766 766 766 767 767 767 767 768 768 769 770 770 771 771 771 772 773 774 775 779 783 784 785 786 788 790 792 795
717 718 719 720 721 722 724 725 727 729 730 732 733 735 737 738 739 740 742 745 746 747 747 749 750 750 751 751 752 752 752 753 754 755 756 757 757 757 758 758 758 759 759 759 759 760 759 759 759 759 760 760 761 762 763 764 765 766 766 766 766 767 767 768 768 769 770 771 772 772 773 773 773 774 776 777 779 782 783 784 786 789 790 792 794
714 715 717 718 719 720 721 723 724 725 727 729 730 732 733 735 736 738 740 742 742 743 744 746 747 747 748 748 749 749 749 750 751 753 754 755 755 756 756 757 757 757 757 757 757 758 758 758 758 758 758 759 759 760 761 762 764 765 766 766 766 767 767 768 769 769 770 770 771 773 774 775 775 775 777 778 779 781 782 784 786 788 790 791 793
711 713 714 715 716 717 719 720 721 723 724 726 727 729 731 732 734 735 737 738 739 740 742 743 744 745 745 746 746 746 747 747 748 750 751 752 752 753 754 754 754 754 754 754 755 755 756 756 756 757 757 757 758 759 760 761 762 763 765 766 766 765 766 767 768 769 770 770 771 772 773 775 775 776 777 778 780 781 782 783 785 788 790 791 793
708 709 711 712 713 715 716 718 719 720 721 723 725 727 728 730 732 733 734 735 736 738 739 740 741 742 742 743 744 744 744 745 746 747 748 749 749 750 750 751 751 751 751 752 752 753 753 754 755 755 756 756 756 757 758 760 761 762 763 764 764 764 764 765 766 768 769 770 771 771 773 774 775 775 776 778 780 781 782 783 785 788 790 791 793
705 706 707 708 710 712 713 715 717 718 720 722 723 725 726 728 729 730 731 732 734 735 736 737 738 739 739 740 741 741 742 743 743 744 745 746 746 746 747 747 748 749 749 749 750 750 751 752 752 753 754 755 755 756 757 759 760 761 762 762 762 763 763 764 765 767 768 769 770 771 772 773 774 775 776 777 779 781 782 784 785 787 789 790 792
702 703 704 705 707 709 710 712 714 716 717 719 721 722 724 726 727 727 728 730 731 732 733 735 735 736 736 737 738 739 739 740 740 740 741 742 743 743 744 744 745 745 746 747 747 748 749 749 750 751 752 753 754 754 756 757 759 760 760 761 761 762 762 763 764 765 767 768 769 770 771 772 773 774 775 776 778 781 782 784 785 786 788 789 790
698 699 701 702 704 706 707 709 711 712 714 716 717 719 721 722 723 724 725 727 728 729 730 731 732 732 733 734 735 736 736 736 736 737 738 739 739 740 741 741 742 742 743 744 745 745 746 747 748 749 750 751 752 753 754 756 757 758 759 759 760 760 761 761 762 764 765 766 767 768 770 771 772 773 774 775 777 779 781 782 784 785 786 788 789
695 696 697 699 701 702 704 706 708 709 710 712 713 715 717 718 719 720 722 723 724 725 727 727 728 729 730 731 732 732 733 733 733 734 735 735 736 737 737 738 739 739 740 741 742 743 744 744 745 747 748 749 750 751 753 754 755 756 757 758 758 758 759 760 761 762 763 765 766 767 768 769 770 771 772 773 775 777 779 780 782 783 785 786 787
691 693 694 695 697 699 701 703 704 705 707 708 710 711 712 714 715 717 719 720 721 722 723 724 724 725 727 728 729 730 730 730 731 732 732 732 733 734 734 735 735 736 737 738 739 740 741 742 743 744 745 746 747 749 750 752 753 754 755 756 756 757 757 758 759 760 761 762 764 765 766 767 768 769 770 771 773 775 776 778 779 780 782 783 785
687 689 690 692 693 695 696 698 699 701 703 704 705 706 708 710 712 714 715 716 718 719 720 720 721 722 724 725 726 727 727 728 728 729 729 729 730 730 731 731 732 733 734 735 736 737 738 739 740 741 742 744 745 746 748 749 751 752 753 754 754 755 755 756 757 758 759 760 761 762 763 764 765 766 767 769 770 771 773 774 776 777 779 780 781
684 685 687 688 689 691 692 694 696 697 698 700 701 703 705 707 709 710 712 713 714 715 716 716 717 719 720 722 723 724 724 724 725 726 726 726 727 727 727 728 729 730 731 732 733 734 735 736 737 738 739 741 742 743 745 746 748 749 750 751 752 753 753 753 754 755 756 756 757 758 759 760 762 763 764 765 767 768 769 770 772 773 775 776 778
681 682 683 685 686 687 689 690 692 693 695 697 699 700 702 704 705 706 708 709 710 711 712 713 714 716 717 718 719 720 720 721 722 722 723 723 723 724 724 725 726 726 727 728 730 731 732 733 734 735 736 737 739 740 741 743 744 746 747 748 748 749 750 750 751 752 753 754 754 755 756 756 757 759 760 762 763 764 765 766 768 769 771 772 774
677 678 680 681 682 683 685 686 688 690 692 694 695 696 698 700 701 702 703 704 706 708 709 709 710 712 713 714 715 716 717 718 718 719 719 720 720 720 721 721 722 723 724 725 726 727 728 729 730 731 732 733 735 736 738 739 740 742 743 744 745 745 746 747 748 749 749 750 751 751 752 753 754 755 756 757 759 760 761 763 764 765 767 768 769
674 675 676 677 678 679 680 682 684 686 688 690 691 692 694 695 696 698 699 700 702 704 705 706 707 708 709 710 711 712 713 714 715 715 716 717 717 718 718 718 719 719 720 721 722 724 724 726 726 727 728 730 731 732 734 735 736 738 739 740 741 742 743 744 745 746 746 747 747 748 748 749 749 750 751 753 754 756 757 759 760 761 762 763 764
670 671 672 673 674 675 677 678 680 683 684 686 687 688 689 691 692 694 695 696 698 699 701 702 703 704 705 706 707 708 709 710 711 712 713 713 714 715 715 716 716 716 717 718 719 720 721 722 723 724 725 726 727 728 729 731 732 733 734 735 737 738 739 740 741 742 743 744 744 744 744 745 745 746 747 749 750 751 752 754 755 756 758 759 760
667 668 668 669 670 671 672 674 676 677 679 681 683 684 685 687 688 689 691 692 693 695 696 697 699 700 701 702 703 704 705 706 707 708 709 709 710 711 712 713 713 713 714 714 715 716 717 718 719 720 721 722 723 724 725 726 727 728 729 731 732 733 735 736 737 738 739 740 740 740 741 741 741 742 743 744 746 747 748 750 751 752 753 754 755
664 664 665 665 666 667 668 670 671 673 675 677 678 680 681 683 684 685 687 688 689 690 691 693 694 695 697 698 699 700 701 702 703 704 705 705 706 707 708 709 710 710 711 711 712 712 713 714 715 716 717 718 719 720 721 722 723 724 725 726 727 729 730 731 732 734 735 735 736 736 737 737 738 738 739 741 742 744 745 746 747 748 749 750 751
661 661 661 662 662 663 665 666 668 669 671 673 674 676 677 678 679 680 682 683 684 685 686 688 689 691 692 693 695 696 697 698 699 700 701 702 702 703 704 705 706 707 708 708 709 709 710 710 711 712 713 714 714 715 716 717 718 719 720 721 722 724 725 726 728 729 730 731 732 732 733 733 734 734 735 737 738 740 741 742 744 745 746 746 747